Wind_Speed
26 20 18 18 16 15 14 14 9 3 2 5 7 5 4 10 11 9 11 18 20 17 18 19 15 14 16 22 24 22 22 23 23 24 24 24 23 23 22 20 20 19 19 19 18 18 18 18 17 16 16 16 15 14 14 14 14 14 14 14 13 13 13 12 12 12 12 11 11 10 10 10 10 10 9 10 10 9 9 9 10 10 11 12 13 13
25 19 19 19 13 11 13 12 9 5 3 5 6 6 5 6 9 7 7 17 23 19 17 17 14 13 15 20 25 24 22 23 24 24 25 25 24 23 22 21 21 20 20 19 19 19 18 18 18 17 17 16 15 14 13 13 15 15 14 14 14 14 14 13 12 12 12 11 11 10 10 10 10 10 10 9 9 9 9 9 9 10 11 12 12 12
24 20 20 17 13 14 15 12 9 5 4 7 7 6 6 6 6 5 5 15 23 20 18 17 15 14 15 18 24 25 23 22 23 24 24 25 24 24 23 22 21 21 20 20 20 19 19 18 18 18 17 17 16 15 14 14 14 15 15 15 15 15 15 13 12 11 11 10 10 9 9 9 9 10 10 9 9 9 9 8 9 9 10 11 12 12
22 20 19 16 16 16 14 13 10 6 6 7 8 6 5 7 4 5 9 15 21 21 17 15 14 14 15 17 22 26 24 22 22 23 24 24 24 22 22 22 22 22 21 20 20 20 19 19 18 18 18 17 17 15 14 14 14 15 15 15 15 15 14 14 12 11 10 9 9 8 8 9 9 9 9 9 9 9 9 9 8 9 10 11 12 11
18 16 17 16 18 16 11 12 10 8 8 7 8 6 3 5 5 5 10 15 18 19 16 13 12 13 14 14 18 24 25 23 23 23 24 25 24 22 21 22 22 22 21 20 20 20 20 19 18 18 18 18 17 16 15 14 14 15 15 14 15 15 14 13 12 11 10 10 10 10 9 9 9 9 9 10 10 10 10 9 9 9 10 11 11 11
16 14 17 16 17 16 10 11 12 10 9 7 8 5 2 4 6 5 9 12 14 14 14 14 9 8 13 13 14 21 26 26 25 24 24 25 25 24 23 24 24 22 21 20 20 20 20 19 19 19 18 18 17 16 16 15 15 15 15 14 14 14 14 13 13 12 11 11 11 11 11 10 10 10 10 10 10 10 11 10 10 9 10 10 10 10
14 13 18 16 15 15 12 11 12 11 8 6 7 4 2 5 7 7 7 9 10 9 13 17 12 5 10 15 14 17 23 26 27 25 24 25 25 25 25 25 26 24 22 21 21 21 20 20 20 19 19 18 17 16 16 15 15 15 15 15 14 13 14 13 13 12 12 12 11 11 10 10 10 10 9 9 9 10 11 11 11 10 10 10 10 10
13 11 17 17 14 14 14 12 12 13 8 4 5 4 3 6 8 8 7 8 9 7 8 16 18 9 7 15 18 18 20 22 26 27 25 25 26 26 27 26 26 25 23 22 22 21 21 20 20 19 19 19 18 16 16 15 15 15 15 15 14 14 14 14 13 13 13 12 11 10 9 10 10 10 10 10 10 10 11 12 11 11 10 10 9 9
13 13 15 17 16 15 15 11 11 14 9 4 4 3 4 6 8 9 7 7 7 6 6 11 16 10 6 13 19 20 20 22 25 27 26 26 27 27 28 27 25 25 24 23 22 21 21 21 20 20 19 19 18 17 16 15 15 14 14 15 15 14 14 14 14 14 13 12 11 10 9 10 10 10 10 10 10 10 11 11 11 11 10 10 10 10
12 16 15 15 17 16 14 11 11 13 9 5 4 4 5 6 6 7 6 4 4 5 6 11 14 11 5 11 22 24 24 24 25 26 26 26 27 28 28 28 26 25 24 24 23 22 22 21 20 20 20 19 19 18 17 16 16 14 14 14 15 14 14 14 14 14 13 13 11 10 9 10 10 10 10 10 10 10 10 11 11 11 11 10 10 10
8 16 18 17 16 14 11 11 14 14 9 6 6 6 7 7 6 6 4 4 4 5 5 10 13 12 6 9 21 27 27 25 23 25 26 26 27 28 28 28 27 26 25 24 24 23 22 21 21 20 21 20 19 19 18 17 16 15 13 13 14 14 15 15 14 13 13 13 12 11 10 10 10 11 10 10 10 10 10 10 10 10 10 10 10 10
6 12 17 18 17 14 9 9 15 16 11 9 9 9 9 8 6 6 5 5 5 3 4 8 10 11 7 6 16 23 26 25 22 24 27 26 27 28 28 27 27 27 26 25 24 24 22 21 22 22 22 22 21 20 19 17 16 16 14 13 13 14 15 15 15 13 12 12 12 12 11 10 11 11 11 10 10 10 10 10 9 9 10 10 10 10
12 12 13 16 18 19 13 10 13 15 15 14 12 13 12 8 6 7 6 5 5 2 5 7 9 10 9 8 12 16 22 27 23 22 26 25 26 28 28 28 28 28 27 26 24 24 24 23 22 23 22 23 22 20 19 18 16 16 15 14 13 13 14 15 15 14 12 12 12 12 12 11 11 11 11 10 9 9 10 10 9 9 8 9 10 10
13 14 15 16 17 20 18 13 14 15 17 18 16 17 15 8 6 7 5 5 5 4 7 8 8 7 6 7 9 9 17 27 23 20 26 27 25 26 27 28 28 28 28 27 26 25 24 24 23 23 23 22 22 20 19 18 17 17 16 15 13 13 14 15 16 15 13 12 12 12 12 12 12 11 11 10 10 9 9 9 9 9 8 8 8 9
11 12 18 21 17 18 21 17 13 14 18 19 17 17 17 11 7 6 5 5 3 5 7 8 6 3 3 6 8 9 15 25 24 20 25 29 27 26 27 28 28 28 29 28 28 27 25 25 25 24 23 22 21 20 20 19 18 17 17 16 14 13 13 14 15 16 15 13 12 12 12 12 12 12 11 11 11 10 9 9 9 9 9 8 8 8
10 8 11 19 17 15 21 19 12 12 17 18 17 17 18 15 10 6 5 5 2 5 5 7 5 2 3 5 9 12 14 21 23 22 25 28 30 30 30 29 28 28 29 28 29 30 27 27 26 25 24 23 21 21 20 19 19 18 17 16 15 13 12 13 14 15 15 15 13 12 12 11 12 12 12 12 11 11 10 9 8 8 8 8 8 8
10 8 7 15 17 15 19 19 17 16 15 16 19 21 17 13 12 9 6 4 4 3 6 8 6 4 5 5 9 14 15 17 19 22 27 29 32 34 32 30 29 29 30 30 31 31 30 28 27 25 24 23 22 21 21 20 19 19 18 17 16 14 13 13 13 15 15 15 14 13 12 11 12 12 12 12 12 11 10 10 9 8 8 8 8 8
7 7 8 14 18 18 17 17 19 19 15 14 19 21 15 10 11 11 6 4 7 5 4 7 8 7 7 6 10 14 16 17 16 18 26 32 34 36 35 32 30 30 30 31 32 31 30 29 27 26 25 23 22 22 21 19 19 19 18 18 17 16 14 13 14 14 15 15 15 14 13 12 12 13 13 12 12 12 11 10 9 9 8 9 9 9
6 6 7 12 16 18 18 17 19 22 19 15 15 18 16 14 13 12 8 5 6 6 4 7 8 8 9 8 9 12 13 14 16 16 23 33 37 37 36 34 32 31 30 31 31 31 31 29 27 26 24 23 22 21 20 19 19 19 19 18 18 17 17 16 15 14 14 14 15 15 14 13 13 13 14 13 12 12 11 11 10 10 9 9 9 9
6 8 7 11 13 16 19 20 21 21 21 17 13 15 18 16 14 14 12 8 5 6 4 5 6 6 9 9 9 11 10 9 13 16 22 32 37 36 35 35 34 32 30 30 31 31 30 29 27 26 24 23 23 21 20 20 19 19 19 19 19 18 18 18 16 15 15 15 15 15 15 15 14 14 15 14 14 13 12 12 12 11 11 10 10 10
7 9 7 11 13 17 20 23 21 20 21 21 18 18 19 18 15 13 12 11 7 6 4 4 4 4 5 7 9 12 10 8 9 14 20 30 36 36 34 35 35 33 31 30 30 30 29 28 27 26 25 25 24 23 21 20 20 19 19 18 18 18 19 18 18 17 16 16 16 16 16 17 16 16 16 16 15 15 14 13 13 13 13 12 12 12
7 9 8 8 14 18 20 22 20 17 18 21 22 21 20 19 17 13 10 11 11 8 6 6 3 4 3 5 8 12 10 6 8 11 17 26 35 38 36 35 35 34 32 30 29 29 29 29 28 27 27 26 26 25 23 22 22 21 19 18 17 17 18 19 19 19 18 17 17 17 17 17 18 18 17 17 16 16 15 15 14 14 14 13 13 13
6 8 9 8 11 13 14 18 20 18 17 19 22 22 20 20 20 17 12 10 11 11 9 7 5 3 3 2 5 11 10 7 8 10 14 22 32 39 40 37 35 33 33 32 31 31 30 30 29 28 28 27 27 26 25 24 23 21 20 18 17 17 17 18 19 19 20 19 19 19 18 18 18 18 18 18 17 17 17 16 16 15 15 14 14 14
5 7 9 10 8 7 8 13 19 21 19 18 21 22 21 22 22 21 16 10 11 12 11 10 6 4 4 3 4 7 9 8 8 10 13 17 26 36 40 39 35 33 32 31 32 32 31 31 30 29 29 28 27 26 26 25 24 22 21 20 18 17 16 17 19 20 20 20 20 20 20 19 19 19 19 19 18 18 18 18 17 17 16 16 15 15
5 5 9 11 9 9 10 11 16 21 22 20 20 21 21 22 22 22 18 11 11 13 12 11 6 2 2 4 4 6 8 10 9 10 14 16 20 30 37 39 36 32 29 30 31 31 32 33 32 31 30 29 29 28 27 26 25 24 23 21 20 19 17 18 19 20 20 21 21 22 21 21 20 20 20 19 19 20 20 20 19 19 18 17 17 17
5 5 8 10 8 7 10 11 12 18 22 21 18 17 19 20 20 20 18 15 13 12 12 12 8 5 8 10 9 9 8 11 12 12 14 16 19 24 31 37 39 35 30 29 29 30 32 33 33 32 31 31 31 31 30 29 28 27 25 24 23 21 20 20 19 20 20 21 21 22 22 22 22 21 21 21 21 21 21 22 22 21 20 19 19 18
3 3 6 8 7 4 3 7 11 14 17 17 16 17 18 20 20 18 19 19 16 13 14 15 12 9 12 12 10 9 7 9 13 14 15 17 18 19 23 29 35 38 36 35 33 31 31 32 32 32 32 33 33 33 33 32 30 29 28 27 26 25 24 22 21 20 20 20 21 22 22 22 22 22 22 21 21 22 22 22 22 23 23 22 21 20
2 3 3 3 4 4 2 5 13 15 13 11 12 15 17 18 19 20 21 20 16 14 14 14 13 12 12 11 9 8 8 7 11 15 15 16 18 18 19 21 26 31 35 38 38 34 31 29 28 29 31 33 35 35 36 36 34 33 32 30 29 28 27 26 24 23 22 21 21 21 22 22 22 22 21 21 21 22 22 22 23 23 23 24 23 22
4 4 2 2 1 1 3 6 11 13 11 8 7 9 13 16 17 19 20 16 13 14 13 10 10 10 10 11 10 10 10 8 9 14 16 17 18 18 17 18 21 24 27 31 33 34 33 30 27 28 28 31 34 34 34 36 36 35 34 33 32 31 31 29 28 26 24 22 22 22 21 22 22 22 22 22 22 22 22 22 23 23 23 23 24 24
6 6 4 4 4 4 3 5 8 9 8 7 5 4 8 11 15 16 16 14 14 15 13 10 7 7 9 10 10 9 9 8 8 14 17 19 18 17 15 16 18 20 22 23 26 31 36 36 34 33 29 27 29 31 32 34 36 36 35 33 33 34 34 32 31 29 27 26 25 24 22 22 23 22 23 23 23 23 23 23 23 23 23 23 23 24
6 6 5 6 4 5 6 5 7 8 8 8 6 5 8 7 10 13 13 14 15 15 13 12 11 10 12 12 10 9 9 8 9 14 17 18 18 16 16 16 17 18 19 22 24 29 34 35 35 36 32 27 27 30 32 34 36 35 33 32 31 33 35 34 33 31 30 29 27 24 24 24 24 23 24 24 25 24 24 24 24 23 23 23 23 23
7 7 6 6 6 4 6 4 5 7 7 6 4 7 11 7 5 8 10 13 13 9 10 12 10 10 13 15 13 12 12 10 10 13 17 19 18 17 17 16 16 17 18 20 22 25 29 30 31 33 34 32 33 33 33 33 35 34 32 30 29 31 33 34 34 32 31 29 26 24 25 25 25 24 25 25 26 26 25 25 25 25 24 24 24 24
9 9 7 8 10 5 3 1 3 6 8 4 3 1 7 7 7 7 6 11 12 8 7 9 9 10 13 14 14 15 15 12 11 14 18 19 19 19 18 15 14 16 18 19 20 22 24 26 28 30 31 33 36 36 33 32 32 33 33 31 29 29 30 30 30 29 28 28 26 25 25 26 26 27 27 28 28 28 27 26 25 25 25 25 26 26
9 10 9 11 13 9 3 2 2 7 8 4 2 2 2 5 8 7 5 10 13 10 9 10 10 10 11 11 11 14 15 13 12 15 19 21 21 20 17 15 14 15 16 17 19 20 21 23 26 26 26 28 31 32 32 31 30 30 30 29 29 28 28 27 27 27 27 26 26 25 25 27 30 30 31 31 30 29 29 28 27 27 27 27 27 27
6 8 9 11 13 12 8 6 6 6 4 3 1 2 1 2 5 7 8 10 12 11 11 12 11 11 11 8 8 12 14 13 14 16 19 21 22 20 18 17 16 16 16 17 19 20 21 22 22 21 21 25 26 27 28 29 29 28 26 26 26 25 24 24 23 23 23 23 24 25 25 27 29 29 30 30 30 30 30 31 30 30 30 29 29 28
5 7 9 9 10 12 12 10 7 4 1 2 1 2 2 0 2 4 4 5 7 9 9 10 10 12 12 9 9 12 15 15 17 19 20 21 21 21 19 18 17 17 18 19 19 19 19 18 15 16 20 24 24 24 27 29 29 27 26 25 24 22 21 21 20 20 20 20 21 23 24 25 26 27 28 28 28 29 29 30 30 30 30 30 30 30
8 7 8 10 10 12 15 13 8 5 3 2 1 1 2 2 0 3 3 1 3 6 7 8 9 10 9 9 12 14 16 18 20 22 22 22 23 22 20 19 18 18 18 18 17 16 16 14 11 13 17 18 17 17 22 24 24 23 24 24 23 21 18 18 17 17 17 17 19 21 22 22 24 24 25 26 27 27 28 28 28 29 30 30 30 30
9 9 9 10 9 11 15 14 11 8 5 5 8 6 1 1 1 4 6 2 3 3 5 6 6 5 6 9 13 16 16 17 20 23 23 23 23 22 20 20 18 16 16 17 17 16 16 14 13 13 15 15 12 10 12 14 15 16 18 18 17 17 17 19 20 20 20 19 19 19 19 19 21 21 22 23 23 23 24 24 24 25 26 27 28 30
5 8 10 10 10 11 14 15 13 8 4 6 10 9 5 2 1 5 7 2 5 3 3 4 3 3 5 8 13 17 16 13 16 23 25 24 23 21 20 20 19 17 17 17 17 18 17 15 14 14 14 14 13 10 10 12 13 13 12 11 13 14 17 20 23 23 22 20 19 19 18 17 18 18 19 19 19 19 20 20 21 22 22 23 25 26
0 3 7 9 10 11 12 13 9 4 4 7 8 7 7 6 5 5 7 3 4 5 2 1 1 2 4 6 10 13 14 11 13 21 25 24 23 20 18 18 19 19 18 18 18 20 18 14 14 13 11 9 10 11 12 13 15 15 14 13 15 15 16 19 22 21 19 18 18 18 17 17 16 17 18 18 17 18 19 19 19 20 21 21 22 22
2 0 3 6 8 10 12 12 6 5 6 8 7 5 6 8 8 8 6 2 2 5 5 3 0 1 3 5 8 11 14 14 15 20 23 23 21 19 18 18 19 19 18 16 17 18 18 15 13 12 10 10 11 11 12 13 14 15 15 15 17 17 16 18 19 19 18 18 18 18 18 17 16 16 17 17 18 19 19 19 18 18 19 19 19 20
2 1 2 3 3 5 9 12 8 6 4 7 6 5 5 5 5 4 2 1 3 4 6 5 2 1 2 5 9 12 16 17 17 19 21 21 18 17 17 19 21 20 18 16 15 15 15 15 14 11 10 10 10 10 11 11 11 12 12 13 14 15 15 15 15 17 17 16 17 18 18 18 18 17 17 17 18 18 18 18 17 16 17 16 15 15
3 1 1 0 1 3 6 10 8 3 1 4 5 5 5 4 4 4 3 2 2 3 5 6 4 3 3 6 9 12 17 18 16 15 17 17 15 14 15 17 19 18 16 16 15 13 13 14 14 14 13 12 11 10 10 10 9 9 9 10 10 12 13 14 14 15 15 15 16 17 17 17 18 18 17 17 16 16 15 15 14 13 13 12 11 10
3 2 2 2 0 2 1 3 5 3 3 2 3 2 2 3 6 8 8 7 5 4 6 6 5 6 6 6 9 12 16 15 13 14 16 14 12 12 12 15 17 17 16 16 16 16 16 16 16 16 14 13 12 10 9 8 7 6 6 6 7 8 10 11 11 12 13 14 15 16 16 16 16 16 16 16 15 15 14 13 13 12 12 11 10 10
1 2 3 3 1 1 3 5 5 5 5 4 3 3 2 0 2 6 9 11 10 10 8 7 8 10 11 11 12 13 15 15 15 17 18 17 15 12 11 13 16 16 16 16 17 18 18 18 17 16 15 13 12 10 8 7 6 6 5 5 6 6 6 7 7 8 10 12 13 13 14 14 13 14 14 14 14 14 14 14 14 13 13 13 12 12
0 2 4 4 3 3 4 5 5 4 4 4 3 2 2 1 1 1 3 6 8 10 11 10 10 11 15 18 17 14 14 17 18 18 19 20 19 16 15 18 19 18 18 18 18 19 19 19 18 17 15 14 12 11 10 9 8 7 7 7 7 8 8 9 10 10 11 11 11 11 11 12 12 13 13 13 14 14 14 14 15 15 15 15 15 15
1 1 3 3 4 4 3 3 3 3 4 4 3 2 2 2 1 1 2 3 6 8 10 11 12 13 16 19 18 13 13 17 18 18 19 20 19 18 19 22 22 21 21 20 19 19 20 19 18 16 14 13 12 11 10 9 8 7 7 7 7 8 9 10 11 12 13 13 13 14 13 13 14 14 14 15 15 15 15 16 16 16 17 17 18 18
3 1 2 3 3 2 3 4 3 4 5 5 5 5 5 4 4 4 4 4 5 7 9 11 12 13 15 17 17 12 11 14 17 18 21 22 22 23 24 24 24 23 23 22 22 22 22 21 19 17 15 14 12 11 10 8 7 6 6 6 6 7 8 9 10 11 13 14 15 15 16 16 17 17 17 18 18 18 19 19 19 20 20 20 21 21
4 3 3 3 2 2 3 4 4 4 5 6 6 7 7 7 7 7 7 7 7 7 8 10 12 14 14 15 14 10 9 11 14 16 19 21 24 27 27 26 24 24 24 24 25 25 24 22 20 17 16 15 13 12 10 9 8 7 6 6 6 7 8 9 10 11 12 13 14 15 16 17 18 19 19 20 21 22 22 22 23 24 24 24 24 25
5 4 5 4 3 5 6 6 5 5 7 8 8 8 9 9 9 9 9 10 10 9 9 10 11 13 13 13 11 9 7 8 9 10 10 12 20 26 25 21 19 22 25 26 26 25 23 20 18 15 14 13 12 11 10 10 9 8 8 7 7 8 8 9 11 12 12 13 13 14 15 16 17 18 19 21 22 23 23 24 26 26 27 27 27 27
9 9 8 7 8 9 10 9 9 9 10 11 11 10 10 10 10 10 9 10 11 12 12 12 11 12 12 11 10 8 6 5 6 8 6 7 14 19 19 15 11 14 19 23 25 25 22 19 17 16 14 13 12 12 11 11 11 11 10 9 9 9 9 10 11 12 13 14 14 15 16 16 17 18 19 21 22 23 23 24 26 26 27 27 28 28
Wind_Direction
179 183 193 196 200 203 201 198 201 246 226 194 204 220 201 176 172 188 200 196 195 197 198 198 190 174 174 179 179 180 181 179 181 182 179 181 182 184 185 182 179 178 177 180 182 181 179 179 179 177 173 167 162 160 158 155 152 148 146 144 142 141 144 145 141 143 147 146 144 143 142 142 144 145 143 140 141 142 140 133 128 127 130 137 142 142
185 195 202 197 198 199 194 199 213 235 227 202 201 209 217 182 154 166 207 198 193 197 199 197 189 176 175 180 179 180 180 179 183 185 183 184 184 186 187 182 179 180 181 182 183 182 181 180 181 180 176 170 165 161 160 157 154 152 149 149 148 146 147 149 149 148 149 149 148 147 146 145 146 148 147 146 144 144 146 141 133 131 134 139 143 143
191 204 201 196 206 198 187 193 202 213 214 201 204 210 208 195 158 142 166 183 184 188 197 197 188 181 181 182 181 181 180 179 183 187 186 187 187 188 187 183 182 184 185 185 184 183 183 182 182 180 177 173 168 163 161 159 157 156 154 155 155 152 152 153 154 151 147 147 146 146 146 147 147 147 148 148 146 145 148 146 138 136 140 143 145 146
194 206 201 201 210 199 190 193 189 194 202 197 208 219 205 194 179 137 147 170 179 183 195 197 185 184 188 185 181 181 182 181 183 187 189 191 190 190 188 185 187 189 189 188 186 185 184 185 183 181 179 175 170 165 162 161 159 159 159 161 161 158 157 155 153 149 142 138 135 136 138 141 143 145 148 148 147 148 148 147 143 142 146 147 148 149
195 202 197 203 204 191 192 198 189 194 201 202 213 227 224 193 189 159 158 173 181 184 195 195 184 187 190 184 179 181 185 188 187 187 190 192 191 191 190 188 191 195 193 191 190 187 186 186 185 184 182 178 172 166 163 162 161 162 166 166 165 163 159 154 152 148 140 133 129 131 134 136 140 145 149 151 151 150 149 147 146 148 150 150 150 151
201 208 197 198 198 190 195 201 195 200 207 208 209 223 241 186 199 193 166 170 180 189 199 197 192 197 195 190 183 184 189 193 194 192 191 193 192 191 190 190 193 196 196 195 194 192 188 187 188 187 185 180 174 169 166 166 166 167 171 171 168 165 159 154 151 148 143 138 138 139 140 143 146 150 154 156 156 152 149 149 151 152 151 151 151 152
207 222 205 195 197 196 199 202 200 201 210 207 190 204 218 181 197 200 172 168 180 200 207 201 201 202 198 200 197 193 193 195 197 196 193 194 195 193 189 190 194 196 196 196 195 195 191 188 191 190 187 183 178 174 171 171 172 172 174 175 172 166 160 158 155 153 149 147 149 148 148 151 151 151 153 155 157 155 151 151 154 154 152 153 155 154
199 206 199 194 197 203 205 207 206 201 207 211 181 191 184 171 186 194 190 183 185 202 200 198 203 204 216 213 204 199 196 194 197 198 194 195 198 196 189 189 194 196 197 195 194 195 193 190 192 192 189 186 182 180 178 176 176 176 176 177 176 168 162 161 159 160 159 156 156 155 151 152 149 147 149 150 153 155 152 151 153 155 153 153 156 154
202 198 195 196 198 206 207 208 211 204 213 241 200 180 158 168 186 187 192 188 186 205 186 185 198 200 238 224 203 198 197 195 198 198 196 196 198 196 191 189 193 196 197 196 195 194 193 191 192 193 191 188 185 183 183 183 181 179 178 178 179 173 166 164 163 165 166 162 161 160 153 151 149 147 147 148 151 153 153 152 152 155 155 153 153 153
207 200 197 198 203 211 211 216 218 206 219 240 195 154 154 172 182 178 192 191 200 243 204 181 192 193 216 213 198 196 196 196 199 199 197 198 198 197 193 190 192 196 197 196 195 194 193 191 191 192 192 189 187 185 186 187 186 183 180 179 180 177 172 169 168 168 170 167 164 162 157 154 151 149 148 148 151 153 153 154 154 155 156 156 156 154
197 203 204 201 203 211 214 222 219 209 217 218 182 159 155 159 164 172 190 184 202 258 206 182 198 204 203 196 198 203 204 200 197 197 198 198 197 197 195 192 192 195 196 197 195 193 191 190 189 191 193 191 188 188 188 189 189 187 183 181 180 180 179 177 174 173 171 169 165 160 159 160 157 152 150 151 153 154 153 154 156 157 157 159 161 161
204 208 210 210 209 211 216 227 223 216 213 203 186 175 166 159 167 180 181 188 220 234 172 179 197 209 222 204 203 214 215 208 201 198 199 199 197 197 196 195 196 195 195 196 195 191 188 188 190 191 193 193 191 189 190 190 191 190 186 183 181 181 183 182 180 178 175 174 169 161 160 166 165 158 155 157 157 156 154 154 157 159 161 163 165 167
218 214 212 217 219 216 216 223 222 215 209 206 200 194 190 178 182 197 188 197 229 183 136 161 177 200 236 235 218 220 216 210 207 202 202 201 198 198 197 197 199 196 193 193 193 190 188 190 193 194 194 195 192 189 190 190 193 194 191 186 182 181 183 186 186 183 180 180 175 166 164 169 170 165 161 161 160 159 159 158 159 161 165 168 169 172
210 215 218 218 222 218 210 208 208 204 204 207 202 203 209 200 194 209 201 203 219 174 141 155 171 195 226 225 223 219 204 203 203 201 203 201 199 199 198 198 199 194 190 190 191 191 192 193 195 195 195 196 192 189 190 191 194 196 195 192 185 182 182 184 188 187 185 185 181 173 169 172 174 170 165 162 161 165 166 163 164 166 170 175 177 178
203 209 216 213 216 215 207 208 209 201 203 206 203 209 217 220 219 213 217 224 189 114 132 161 181 199 179 190 204 194 189 193 196 200 203 200 197 196 194 195 196 192 189 189 188 190 194 194 195 195 195 195 191 190 192 193 195 196 197 195 190 187 184 184 188 190 190 189 186 179 174 175 177 173 171 170 168 168 169 170 173 173 174 179 184 186
219 226 219 209 208 208 204 206 208 199 203 206 205 212 219 222 226 223 243 252 148 105 148 188 200 192 176 194 192 184 188 196 202 208 209 202 195 192 191 192 192 188 188 189 187 188 191 192 193 194 194 194 192 192 193 194 196 196 196 195 192 189 187 188 190 192 193 193 190 184 179 179 181 179 177 175 172 172 173 175 179 179 178 180 186 191
223 231 203 197 201 205 204 204 204 201 202 205 207 213 220 224 230 233 242 257 235 202 182 193 208 192 188 215 203 195 197 202 210 215 213 205 195 192 192 191 190 186 186 188 187 186 189 191 192 193 193 194 195 195 195 196 197 197 196 194 192 191 189 191 194 196 198 198 195 190 186 185 185 186 184 181 177 178 180 180 182 184 183 181 185 193
236 224 185 194 204 204 202 203 207 209 209 208 210 211 214 222 234 241 240 230 235 233 175 187 214 201 186 212 218 209 207 206 211 214 209 203 196 193 193 191 191 190 187 187 186 185 187 189 190 191 193 195 196 198 198 197 197 197 197 195 192 191 190 191 195 199 202 202 200 196 193 193 193 191 191 190 185 185 186 186 189 193 188 184 186 193
245 238 182 187 203 200 195 200 206 212 216 219 218 211 209 216 219 220 229 235 227 232 197 178 206 214 202 211 218 213 214 213 213 211 205 200 196 193 192 192 192 193 190 186 185 185 186 187 186 187 190 191 193 195 196 197 196 194 195 195 193 192 191 192 195 198 202 205 206 203 199 199 201 198 197 197 195 192 192 192 196 200 198 193 192 194
228 243 188 169 193 196 192 202 205 204 208 216 223 214 211 220 224 218 224 234 232 240 224 172 191 214 210 215 219 219 231 231 217 211 204 200 195 192 193 194 194 194 192 187 186 187 186 186 186 186 187 188 190 192 194 195 192 189 191 194 195 196 196 196 196 196 199 204 207 208 206 205 207 207 205 203 201 200 199 199 201 204 205 203 200 199
214 241 214 160 179 196 197 203 205 200 202 208 214 215 211 216 225 231 231 228 230 243 243 223 210 182 197 228 223 219 233 235 214 209 204 200 195 192 194 197 197 196 194 190 190 189 186 187 189 188 187 188 188 189 191 193 190 187 190 193 196 199 200 201 200 199 200 203 204 207 209 208 210 212 212 210 207 205 205 206 207 209 210 209 207 206
204 230 233 176 183 204 207 205 206 207 207 208 212 216 215 213 216 224 226 218 224 237 247 257 240 166 199 257 229 220 225 215 200 200 198 198 196 194 194 198 200 199 197 196 196 194 190 189 191 192 190 190 191 190 190 192 192 191 192 194 196 199 202 205 205 205 204 204 205 206 209 211 211 214 216 216 214 211 210 211 213 215 215 214 214 213
200 216 236 218 198 203 203 200 205 209 208 213 219 219 218 218 217 220 221 212 217 231 237 247 246 206 222 266 227 222 219 200 193 190 189 194 196 196 196 198 201 200 200 201 202 202 197 191 192 194 192 193 194 194 195 196 195 195 196 198 200 201 203 206 208 210 210 209 209 209 211 213 214 216 219 220 220 218 217 218 218 219 219 218 219 219
203 207 225 226 213 203 199 204 210 211 210 217 223 221 221 222 220 224 230 226 219 221 225 231 226 193 212 244 242 228 220 212 203 187 183 188 194 197 198 201 203 201 202 206 207 206 202 196 195 195 194 196 197 198 200 199 198 198 199 202 205 204 204 207 209 212 213 212 213 213 214 215 216 218 220 222 223 223 223 223 223 223 222 222 222 223
207 216 225 217 202 193 196 205 209 209 213 219 222 220 222 224 224 227 229 230 229 225 228 238 236 185 243 282 288 256 228 215 208 193 185 183 189 196 199 204 206 204 206 210 210 208 205 202 200 198 196 199 200 202 204 202 201 202 203 206 210 210 209 210 211 213 214 214 216 218 218 219 219 220 221 223 224 226 227 227 227 227 226 225 225 226
209 227 235 228 221 200 193 197 197 200 207 215 219 218 219 221 223 225 222 222 230 229 228 236 242 266 290 296 294 277 242 213 208 203 193 185 183 189 197 204 207 209 215 217 215 213 211 209 208 206 204 204 204 206 206 205 205 205 206 208 213 217 217 217 216 216 216 217 218 220 221 222 223 223 224 225 226 228 229 230 231 231 230 230 229 229
216 225 230 242 262 268 196 180 179 185 196 206 214 216 219 222 223 226 228 227 228 230 234 234 232 251 275 282 285 281 261 223 210 208 201 191 183 182 189 199 205 210 217 222 222 219 216 214 213 213 213 212 211 210 208 208 208 207 208 210 213 219 222 223 224 222 219 220 220 222 223 224 225 226 226 227 228 230 232 233 234 234 234 235 235 234
201 216 217 246 269 269 258 177 173 178 186 196 209 213 216 221 220 223 231 232 228 233 238 232 223 233 256 268 275 283 285 254 217 209 206 197 189 185 186 192 200 207 214 220 223 221 217 216 218 221 222 218 215 213 211 211 212 212 212 212 213 218 223 226 229 227 224 224 224 225 225 225 226 227 227 229 230 231 232 234 236 236 237 238 239 239
200 211 189 87 61 216 230 193 173 175 181 183 194 202 207 214 216 221 229 231 227 233 239 232 219 226 246 263 274 283 289 277 229 212 207 200 195 193 193 197 201 204 210 216 217 217 217 221 229 232 229 223 219 216 215 214 215 215 215 215 216 219 222 226 230 231 230 230 230 230 230 229 229 229 230 231 232 233 233 234 236 237 239 240 240 242
193 201 172 121 87 82 127 176 165 160 161 146 131 162 192 205 212 218 225 227 227 234 243 253 247 234 245 264 275 277 279 273 233 215 209 202 199 198 200 204 205 205 208 210 210 211 214 223 236 236 230 227 224 220 219 218 217 217 217 217 220 221 222 224 229 232 233 233 233 232 232 232 232 233 234 234 235 236 237 237 238 239 240 240 241 242
186 206 176 141 132 92 93 137 152 145 142 117 105 167 185 187 206 215 218 225 231 235 239 243 243 238 244 255 264 265 268 263 234 217 208 201 198 199 201 202 200 201 204 204 203 204 207 215 226 227 227 234 232 224 221 220 219 219 218 219 222 223 223 224 227 231 235 237 236 234 233 234 234 235 236 236 237 238 238 239 240 241 242 242 243 244
190 207 187 170 183 133 94 121 144 145 153 122 100 196 190 172 185 205 214 219 220 226 233 232 230 233 240 245 249 254 259 257 239 215 202 196 193 195 198 198 194 195 202 204 202 203 206 208 210 212 218 229 233 228 225 223 220 219 217 217 220 222 223 225 228 231 235 238 238 235 235 236 237 239 241 240 239 239 239 239 240 240 241 242 244 245
197 199 202 210 209 180 89 91 148 177 187 165 31 216 187 188 194 192 214 219 209 207 226 227 220 227 241 247 248 249 247 242 229 208 195 191 191 195 196 194 190 192 200 204 203 204 208 209 208 210 214 221 225 224 223 222 218 215 213 214 217 220 222 224 227 230 232 234 235 235 235 235 236 240 243 243 241 239 239 239 238 239 240 241 243 244
213 205 206 210 208 211 265 322 221 213 200 183 344 338 180 207 207 196 210 217 210 206 215 222 222 230 248 257 255 252 244 229 214 203 194 191 196 201 199 194 195 199 202 206 209 210 211 212 212 212 215 221 223 219 217 218 219 216 214 214 215 218 220 221 224 227 228 230 233 235 235 234 234 236 239 240 240 238 237 238 238 238 240 242 243 244
232 222 215 209 206 215 240 255 234 216 173 119 352 337 35 196 207 211 222 225 221 217 223 232 232 230 237 241 244 247 241 226 215 205 196 195 199 204 202 199 203 207 208 212 216 219 220 220 218 213 213 221 225 221 217 219 222 222 219 218 218 218 218 218 220 224 224 226 231 235 236 236 235 235 236 237 239 238 237 238 239 240 242 244 246 245
225 221 220 219 210 208 218 225 224 214 153 121 109 44 29 1 208 209 225 252 239 224 229 241 242 239 232 210 206 226 229 224 218 207 197 195 199 203 203 203 207 210 213 219 223 221 217 214 213 210 208 213 217 215 215 218 221 220 219 220 220 216 212 210 210 215 221 225 229 232 234 234 234 234 234 236 238 238 238 239 240 241 243 246 247 246
211 205 215 222 216 215 219 217 204 199 217 228 242 352 21 6 303 168 149 341 265 224 228 238 247 260 244 200 200 218 222 220 214 206 198 197 201 205 202 201 208 212 213 215 213 209 205 200 196 192 193 201 206 203 203 208 211 209 207 208 211 212 210 208 208 212 218 221 225 228 229 229 229 231 232 234 236 236 238 239 240 241 243 244 246 246
209 201 207 215 215 220 223 217 207 206 208 224 246 261 294 21 246 156 137 60 333 257 230 235 249 262 229 204 212 215 210 207 205 202 201 202 205 207 203 201 202 202 204 203 197 198 203 202 195 186 184 196 210 208 196 193 196 200 197 193 196 207 212 208 204 206 210 213 220 224 223 222 223 225 227 228 229 231 234 237 239 242 243 244 245 246
219 204 202 210 214 217 220 220 217 211 184 197 224 236 228 204 180 154 154 118 3 340 235 235 252 233 201 211 223 214 201 195 200 202 201 200 202 203 203 199 190 184 190 192 190 198 204 197 193 195 192 194 201 206 197 185 187 202 205 191 191 207 218 211 200 198 203 208 213 215 215 215 217 219 220 220 221 225 231 236 240 243 243 244 245 246
263 205 204 213 216 213 218 224 219 190 158 171 185 199 203 195 192 194 192 187 16 13 351 269 253 217 206 218 223 209 190 187 209 210 202 200 200 195 190 190 185 182 187 186 184 192 197 193 197 207 213 209 202 201 198 190 192 203 211 211 209 213 218 210 198 195 202 206 208 210 213 215 216 216 218 220 221 224 229 234 237 239 239 240 242 242
50 151 204 217 218 209 214 220 197 134 163 181 164 152 170 187 209 225 219 221 339 4 10 3 325 238 236 214 208 201 189 194 220 219 206 204 205 194 186 190 192 192 194 191 190 193 195 200 207 210 214 218 211 206 200 194 194 198 202 209 211 209 206 198 193 197 205 209 212 214 216 218 219 219 221 225 227 229 230 231 234 236 238 240 242 243
30 28 184 208 227 214 214 213 191 142 169 205 204 193 181 182 213 223 188 222 288 336 2 357 340 306 258 197 194 206 207 211 223 217 204 206 212 205 200 202 201 201 201 200 200 199 198 204 205 195 188 190 190 192 189 183 183 186 188 193 196 197 199 196 196 200 203 205 211 214 215 218 219 220 222 225 227 229 229 229 231 234 237 240 244 244
51 68 100 140 240 230 221 212 199 168 188 227 226 228 225 219 220 216 208 243 294 325 335 334 329 304 263 215 208 222 225 223 225 217 208 208 210 209 212 211 204 202 201 197 192 187 185 186 179 167 164 166 169 173 171 168 170 173 176 179 179 182 187 190 193 194 192 197 207 210 212 214 214 215 219 220 222 224 225 226 228 229 232 235 238 238
65 84 65 48 209 231 218 187 175 137 107 148 180 190 239 248 236 236 243 251 265 288 309 317 302 282 271 248 237 239 235 227 217 212 215 216 206 197 204 206 198 191 187 182 174 167 163 161 158 155 156 160 163 164 163 163 167 170 172 176 178 181 184 184 187 187 187 195 204 206 208 210 210 211 214 215 216 219 220 222 224 225 227 229 229 231
71 104 103 99 150 166 111 125 151 143 115 110 128 130 104 74 241 245 248 250 254 263 272 278 277 274 268 258 253 246 236 223 209 208 217 216 202 187 186 193 193 186 180 174 169 165 162 161 161 160 160 163 167 169 172 175 177 183 193 201 208 213 210 205 205 205 203 205 207 207 210 213 214 216 218 220 221 222 222 224 226 228 230 233 235 238
327 93 99 102 116 137 139 146 162 162 143 129 127 124 114 104 102 227 249 249 249 249 250 251 256 260 260 259 258 252 242 234 226 226 227 217 202 194 190 189 190 186 180 176 174 172 170 167 167 169 170 172 176 177 179 182 184 189 198 208 218 226 229 229 230 232 234 233 231 230 229 228 228 229 231 233 235 236 236 236 237 239 241 243 245 248
292 97 106 116 118 128 166 192 198 206 203 192 187 198 201 199 202 197 212 234 239 238 241 244 247 251 255 258 258 253 247 245 243 242 239 228 222 222 212 198 193 190 184 180 179 179 178 177 178 180 183 186 187 185 182 182 184 191 199 208 217 223 227 231 233 236 241 245 247 248 249 249 249 249 249 250 252 253 253 253 253 253 254 254 256 257
233 201 152 147 143 160 199 206 218 237 240 234 236 240 237 234 238 232 222 226 231 235 241 246 251 255 257 259 260 255 245 247 249 247 242 238 238 235 219 200 192 188 184 183 186 187 187 188 190 192 193 192 190 189 188 189 192 200 210 219 229 236 237 239 240 240 241 244 246 249 252 253 256 257 258 260 261 262 263 264 264 263 263 264 264 265
222 217 208 190 189 230 222 226 251 268 267 265 264 265 264 257 253 250 245 239 231 231 237 243 250 256 260 264 270 270 260 258 261 256 246 241 240 233 214 195 190 192 190 190 192 194 196 197 196 196 196 194 193 194 198 206 213 220 229 237 246 254 255 255 255 252 250 249 249 250 252 253 256 258 260 262 263 264 266 267 267 267 267 268 268 269
221 221 229 225 219 214 219 239 254 258 268 275 277 276 276 274 270 265 259 254 248 242 239 238 244 251 259 268 278 286 289 281 277 275 262 246 242 233 214 192 191 199 200 200 199 199 202 204 204 205 204 202 205 209 212 219 225 231 241 249 257 264 267 267 266 263 261 260 257 255 255 255 255 256 257 259 261 263 264 265 266 268 268 269 269 269
231 231 234 233 230 228 237 255 261 258 265 273 275 274 275 277 277 274 268 263 259 255 252 250 250 252 259 270 282 293 302 293 279 280 269 231 230 231 218 204 207 216 216 213 207 203 205 208 210 214 217 218 225 234 238 242 245 247 252 259 265 269 271 271 269 267 265 263 261 260 259 258 257 257 257 258 260 261 261 262 263 265 265 266 266 267
Height
3162 3164 3165 3166 3168 3169 3170 3171 3172 3172 3171 3171 3171 3170 3170 3172 3174 3176 3177 3178 3179 3181 3181 3183 3185 3185 3186 3189 3192 3194 3197 3199 3202 3204 3206 3208 3209 3211 3213 3215 3217 3219 3220 3222 3223 3224 3226 3227 3228 3229 3230 3231 3232 3233 3234 3235 3235 3236 3237 3238 3239 3239 3240 3241 3241 3242 3243 3244 3244 3245 3246 3247 3247 3248 3249 3249 3250 3251 3252 3252 3253 3253 3254 3255 3255 3256
3163 3164 3164 3166 3168 3168 3169 3170 3171 3171 3171 3171 3171 3171 3172 3173 3175 3176 3176 3177 3179 3180 3181 3182 3183 3184 3186 3188 3191 3193 3196 3198 3201 3203 3205 3207 3209 3211 3213 3215 3217 3218 3220 3222 3223 3224 3226 3227 3228 3229 3231 3232 3232 3233 3234 3235 3236 3237 3238 3238 3239 3240 3241 3241 3242 3243 3243 3244 3245 3246 3246 3247 3248 3248 3249 3250 3251 3251 3252 3253 3254 3254 3255 3256 3256 3257
3162 3163 3164 3166 3166 3166 3168 3169 3170 3171 3171 3171 3171 3172 3172 3173 3174 3175 3175 3176 3178 3179 3181 3182 3184 3185 3187 3188 3190 3193 3195 3198 3201 3203 3205 3207 3209 3210 3212 3214 3216 3218 3219 3221 3223 3224 3226 3227 3228 3229 3231 3232 3233 3233 3234 3235 3236 3237 3238 3239 3239 3240 3241 3242 3243 3244 3244 3245 3245 3246 3247 3247 3248 3249 3250 3250 3251 3252 3253 3253 3254 3255 3256 3256 3257 3258
3162 3162 3164 3165 3164 3166 3168 3168 3169 3171 3171 3171 3171 3171 3171 3173 3174 3174 3175 3176 3178 3179 3180 3182 3184 3187 3188 3188 3189 3192 3195 3198 3200 3203 3205 3207 3209 3211 3212 3214 3216 3217 3219 3221 3222 3224 3226 3227 3228 3229 3231 3232 3233 3233 3234 3235 3236 3237 3238 3239 3240 3240 3241 3242 3243 3244 3245 3245 3246 3246 3247 3248 3249 3249 3250 3251 3251 3252 3253 3254 3255 3255 3256 3257 3258 3259
3161 3162 3163 3164 3164 3166 3168 3169 3170 3171 3171 3171 3171 3171 3171 3173 3174 3174 3175 3176 3178 3178 3179 3181 3184 3186 3187 3188 3188 3190 3193 3197 3199 3201 3204 3206 3208 3210 3212 3214 3215 3217 3218 3220 3222 3224 3225 3227 3228 3229 3231 3232 3233 3234 3234 3235 3236 3237 3238 3239 3240 3241 3242 3243 3244 3245 3245 3246 3246 3247 3248 3248 3249 3250 3250 3251 3252 3253 3254 3254 3255 3256 3257 3258 3258 3259
3161 3160 3162 3164 3164 3166 3168 3169 3170 3170 3171 3171 3171 3171 3171 3173 3173 3174 3175 3177 3178 3178 3178 3180 3182 3184 3186 3187 3188 3189 3191 3195 3198 3200 3203 3205 3207 3208 3210 3212 3214 3216 3218 3220 3222 3223 3225 3226 3228 3229 3230 3231 3233 3234 3235 3235 3236 3237 3238 3239 3240 3241 3242 3243 3244 3245 3245 3246 3247 3247 3248 3249 3249 3250 3250 3251 3252 3253 3254 3255 3256 3256 3257 3258 3259 3260
3160 3159 3162 3164 3165 3167 3168 3169 3170 3170 3171 3170 3170 3171 3172 3173 3173 3174 3175 3177 3177 3178 3178 3179 3181 3183 3184 3186 3187 3189 3190 3193 3196 3199 3201 3204 3205 3207 3209 3211 3213 3215 3217 3219 3221 3223 3224 3226 3228 3229 3230 3231 3232 3234 3235 3235 3236 3237 3238 3239 3240 3242 3243 3243 3244 3245 3246 3246 3247 3248 3248 3249 3250 3250 3251 3252 3252 3253 3254 3255 3256 3257 3258 3258 3259 3260
3159 3159 3161 3164 3165 3167 3168 3169 3170 3170 3170 3170 3170 3172 3172 3173 3174 3174 3175 3176 3177 3177 3177 3179 3180 3182 3183 3184 3186 3188 3189 3192 3194 3197 3199 3202 3204 3206 3208 3210 3212 3214 3216 3218 3220 3221 3223 3225 3227 3229 3230 3231 3232 3233 3234 3235 3236 3237 3238 3239 3240 3242 3243 3244 3244 3245 3246 3246 3247 3248 3249 3249 3250 3251 3251 3252 3253 3254 3254 3255 3256 3257 3258 3259 3260 3261
3158 3160 3161 3163 3165 3167 3168 3169 3169 3169 3171 3170 3170 3172 3173 3174 3174 3175 3175 3176 3177 3176 3176 3178 3179 3181 3182 3182 3185 3187 3189 3191 3193 3195 3197 3200 3203 3205 3207 3209 3211 3213 3215 3217 3219 3221 3222 3224 3226 3228 3230 3231 3232 3233 3234 3235 3236 3237 3238 3239 3240 3242 3243 3244 3245 3245 3246 3246 3247 3248 3249 3250 3251 3251 3252 3252 3253 3254 3254 3255 3256 3257 3258 3259 3260 3261
3158 3160 3161 3163 3165 3166 3168 3169 3168 3169 3171 3170 3170 3172 3173 3174 3174 3175 3176 3176 3177 3175 3174 3177 3178 3179 3180 3180 3182 3185 3187 3189 3191 3194 3196 3199 3201 3204 3206 3208 3210 3212 3214 3215 3218 3220 3222 3224 3226 3228 3229 3230 3231 3232 3234 3235 3236 3237 3238 3239 3240 3241 3243 3244 3245 3245 3246 3247 3247 3248 3249 3250 3251 3251 3252 3253 3253 3254 3255 3255 3256 3257 3258 3259 3260 3261
3156 3158 3159 3161 3164 3166 3167 3166 3166 3168 3170 3170 3171 3172 3173 3174 3175 3175 3176 3177 3177 3175 3172 3174 3176 3176 3177 3177 3179 3181 3184 3187 3190 3192 3195 3197 3200 3202 3205 3207 3208 3210 3212 3214 3216 3218 3221 3223 3225 3227 3228 3230 3231 3232 3233 3234 3235 3236 3238 3239 3240 3241 3242 3243 3244 3245 3246 3247 3248 3249 3250 3250 3251 3251 3252 3253 3253 3254 3255 3256 3256 3257 3258 3259 3260 3261
3156 3157 3159 3160 3161 3163 3164 3164 3165 3167 3169 3170 3172 3172 3172 3174 3175 3175 3176 3176 3177 3175 3172 3173 3175 3176 3175 3175 3178 3180 3182 3186 3188 3191 3193 3195 3198 3201 3203 3206 3207 3209 3211 3213 3215 3217 3219 3221 3223 3225 3227 3228 3230 3231 3233 3234 3235 3236 3237 3238 3240 3241 3242 3243 3244 3245 3246 3247 3248 3249 3250 3250 3251 3251 3252 3253 3254 3254 3255 3256 3256 3257 3258 3258 3259 3260
3157 3157 3158 3159 3160 3161 3163 3165 3165 3167 3169 3170 3172 3172 3171 3172 3173 3173 3173 3173 3174 3173 3172 3172 3174 3176 3175 3175 3176 3178 3180 3184 3187 3190 3192 3194 3197 3199 3202 3204 3206 3208 3210 3212 3214 3216 3218 3220 3222 3224 3226 3227 3229 3231 3232 3233 3234 3235 3237 3238 3239 3240 3241 3242 3243 3244 3245 3246 3247 3248 3249 3250 3251 3252 3252 3253 3254 3254 3255 3255 3256 3257 3258 3259 3259 3260
3155 3157 3157 3158 3159 3159 3162 3164 3164 3166 3168 3168 3170 3171 3169 3169 3171 3171 3169 3169 3170 3171 3172 3173 3174 3175 3175 3175 3175 3176 3178 3182 3186 3189 3191 3194 3197 3198 3201 3203 3205 3206 3209 3211 3213 3215 3217 3219 3221 3223 3225 3227 3228 3230 3231 3233 3234 3235 3236 3237 3238 3240 3241 3242 3243 3244 3245 3246 3247 3248 3249 3250 3251 3252 3252 3253 3254 3255 3255 3256 3256 3257 3258 3259 3259 3260
3151 3153 3154 3155 3157 3157 3159 3162 3163 3165 3166 3167 3169 3170 3168 3167 3168 3169 3168 3166 3168 3171 3172 3173 3174 3173 3173 3174 3175 3176 3178 3182 3185 3187 3189 3192 3195 3197 3200 3202 3203 3205 3207 3209 3211 3214 3216 3218 3220 3222 3224 3226 3227 3229 3230 3232 3233 3234 3236 3237 3238 3239 3240 3241 3242 3243 3244 3245 3246 3247 3249 3250 3251 3251 3252 3253 3254 3254 3255 3256 3256 3257 3258 3258 3259 3260
3150 3150 3150 3152 3155 3156 3158 3161 3163 3164 3165 3166 3168 3168 3167 3167 3167 3168 3167 3166 3168 3172 3172 3172 3172 3172 3172 3174 3175 3176 3179 3182 3184 3185 3187 3190 3193 3195 3198 3200 3202 3204 3206 3208 3210 3213 3215 3218 3220 3221 3223 3225 3227 3228 3229 3231 3232 3234 3235 3236 3237 3238 3240 3241 3241 3242 3243 3244 3245 3247 3248 3249 3250 3251 3252 3252 3253 3254 3255 3256 3256 3257 3257 3258 3259 3260
3150 3149 3150 3152 3154 3156 3158 3160 3161 3162 3163 3164 3165 3165 3166 3167 3167 3166 3166 3167 3168 3169 3170 3170 3171 3171 3173 3174 3175 3176 3177 3180 3181 3182 3184 3187 3190 3193 3195 3198 3201 3203 3205 3207 3209 3211 3214 3216 3218 3220 3222 3224 3225 3227 3228 3230 3231 3233 3234 3236 3237 3238 3239 3240 3241 3242 3243 3244 3245 3246 3247 3248 3249 3250 3251 3252 3253 3254 3254 3255 3256 3257 3257 3258 3259 3260
3149 3148 3149 3151 3153 3155 3157 3160 3161 3161 3162 3163 3163 3164 3166 3167 3167 3166 3166 3167 3167 3166 3166 3169 3169 3170 3172 3173 3173 3174 3175 3177 3178 3179 3181 3184 3187 3190 3193 3196 3199 3202 3204 3206 3209 3211 3213 3215 3217 3219 3221 3223 3225 3226 3228 3229 3230 3232 3233 3235 3236 3237 3238 3239 3240 3241 3242 3243 3244 3245 3246 3247 3248 3249 3250 3251 3252 3253 3254 3255 3256 3257 3257 3258 3259 3259
3149 3147 3148 3150 3152 3154 3156 3158 3159 3160 3161 3162 3163 3164 3166 3166 3165 3165 3165 3165 3166 3164 3164 3167 3168 3168 3169 3171 3171 3172 3173 3174 3175 3176 3178 3180 3183 3187 3191 3194 3197 3200 3203 3205 3208 3210 3212 3214 3216 3218 3220 3222 3223 3225 3226 3228 3229 3230 3232 3233 3235 3236 3237 3239 3240 3241 3242 3243 3244 3245 3246 3247 3248 3248 3249 3251 3252 3252 3253 3255 3255 3256 3257 3258 3258 3259
3150 3148 3146 3149 3152 3153 3155 3156 3156 3157 3159 3161 3163 3163 3164 3164 3163 3164 3164 3164 3165 3163 3163 3166 3168 3167 3167 3169 3170 3170 3171 3172 3173 3174 3176 3178 3181 3185 3189 3193 3196 3199 3201 3204 3206 3209 3211 3213 3215 3217 3219 3220 3222 3224 3225 3227 3228 3229 3231 3232 3234 3235 3236 3238 3239 3240 3241 3242 3243 3244 3245 3246 3247 3248 3249 3250 3251 3252 3253 3254 3255 3256 3257 3257 3258 3259
3150 3148 3145 3147 3151 3151 3151 3152 3153 3155 3157 3159 3160 3161 3162 3163 3163 3163 3163 3164 3165 3164 3162 3163 3165 3165 3166 3168 3168 3169 3170 3170 3171 3172 3174 3176 3180 3184 3188 3191 3194 3197 3200 3203 3205 3208 3210 3212 3214 3215 3217 3219 3221 3222 3224 3225 3227 3228 3229 3231 3232 3234 3235 3237 3238 3239 3240 3241 3242 3244 3245 3246 3246 3247 3248 3249 3250 3251 3252 3253 3254 3255 3256 3257 3258 3258
3149 3148 3146 3147 3149 3149 3149 3150 3152 3154 3155 3157 3158 3159 3160 3161 3162 3162 3162 3163 3164 3164 3162 3162 3163 3165 3166 3167 3167 3168 3169 3169 3170 3171 3173 3175 3178 3182 3185 3189 3192 3196 3199 3202 3205 3207 3209 3211 3212 3214 3216 3218 3219 3221 3222 3224 3225 3227 3228 3229 3231 3232 3234 3235 3236 3238 3239 3240 3241 3242 3243 3245 3246 3246 3247 3249 3250 3251 3252 3253 3253 3254 3255 3256 3257 3258
3148 3148 3148 3146 3146 3147 3147 3149 3152 3153 3154 3156 3156 3157 3159 3159 3160 3160 3159 3161 3163 3164 3163 3164 3164 3165 3166 3167 3167 3167 3168 3169 3170 3171 3172 3174 3177 3180 3183 3187 3190 3194 3197 3200 3203 3205 3207 3209 3211 3212 3214 3216 3218 3220 3221 3222 3224 3226 3227 3228 3230 3231 3232 3234 3235 3236 3237 3238 3239 3241 3242 3243 3244 3246 3247 3248 3249 3250 3251 3252 3253 3254 3255 3256 3257 3257
3147 3147 3148 3146 3146 3147 3148 3149 3151 3152 3154 3155 3155 3155 3157 3157 3158 3158 3158 3161 3162 3162 3163 3163 3163 3164 3166 3166 3167 3167 3167 3169 3170 3171 3172 3174 3176 3179 3182 3185 3188 3192 3195 3197 3200 3202 3205 3208 3209 3210 3213 3214 3216 3218 3219 3221 3223 3225 3226 3227 3228 3230 3231 3232 3233 3234 3235 3237 3238 3239 3240 3241 3243 3244 3245 3247 3248 3249 3250 3251 3252 3253 3254 3255 3256 3257
3146 3147 3146 3145 3144 3146 3147 3148 3149 3151 3152 3152 3152 3153 3154 3155 3157 3158 3159 3162 3162 3161 3162 3162 3162 3164 3165 3166 3166 3166 3167 3168 3169 3170 3172 3173 3175 3177 3181 3184 3187 3190 3192 3195 3197 3200 3203 3205 3207 3209 3211 3213 3215 3216 3218 3219 3221 3223 3225 3226 3227 3228 3229 3230 3231 3232 3234 3235 3236 3237 3239 3240 3241 3243 3244 3245 3247 3248 3249 3250 3251 3252 3253 3254 3255 3256
3146 3146 3146 3143 3141 3141 3142 3143 3144 3147 3149 3150 3151 3152 3153 3155 3156 3157 3159 3161 3161 3161 3162 3163 3163 3164 3165 3166 3166 3166 3166 3167 3168 3169 3171 3173 3174 3176 3178 3182 3185 3188 3191 3193 3194 3197 3199 3202 3204 3207 3209 3210 3212 3214 3215 3217 3219 3221 3223 3224 3225 3226 3227 3228 3229 3231 3232 3233 3235 3236 3237 3239 3240 3241 3242 3244 3245 3246 3247 3248 3250 3250 3251 3252 3253 3254
3145 3145 3145 3144 3142 3141 3140 3141 3142 3145 3147 3149 3150 3151 3153 3154 3156 3157 3158 3158 3160 3162 3162 3163 3164 3165 3165 3165 3165 3165 3165 3166 3167 3168 3170 3172 3173 3175 3177 3180 3183 3186 3188 3190 3192 3194 3196 3198 3201 3204 3205 3207 3209 3210 3212 3215 3216 3218 3220 3222 3223 3224 3225 3226 3228 3229 3230 3232 3233 3234 3235 3237 3238 3240 3241 3242 3243 3245 3246 3247 3248 3249 3250 3251 3252 3253
3145 3145 3144 3144 3143 3142 3142 3142 3142 3145 3147 3149 3149 3151 3152 3153 3154 3156 3156 3156 3159 3161 3160 3161 3164 3165 3165 3165 3165 3165 3165 3165 3166 3167 3169 3171 3173 3175 3177 3179 3181 3183 3185 3186 3188 3190 3193 3195 3198 3200 3202 3204 3205 3207 3209 3211 3213 3215 3217 3219 3221 3222 3223 3224 3226 3227 3228 3230 3231 3232 3234 3235 3236 3237 3239 3240 3242 3243 3244 3245 3246 3247 3248 3249 3250 3251
3145 3145 3144 3144 3143 3142 3143 3143 3143 3145 3147 3148 3149 3150 3151 3152 3153 3155 3155 3156 3159 3160 3159 3160 3162 3163 3164 3164 3164 3164 3164 3164 3165 3167 3168 3170 3172 3174 3176 3178 3180 3181 3182 3183 3184 3187 3190 3192 3194 3197 3199 3201 3202 3204 3206 3207 3209 3211 3213 3216 3218 3219 3221 3222 3224 3225 3227 3228 3229 3230 3232 3233 3234 3235 3237 3238 3240 3241 3242 3243 3244 3245 3246 3247 3248 3249
3144 3145 3144 3144 3144 3143 3143 3143 3144 3145 3146 3147 3149 3149 3150 3151 3152 3154 3155 3156 3158 3159 3160 3160 3161 3162 3163 3163 3163 3163 3163 3164 3164 3165 3167 3169 3171 3173 3175 3176 3177 3178 3180 3181 3182 3184 3187 3190 3192 3194 3196 3198 3199 3201 3202 3204 3205 3207 3210 3213 3215 3216 3217 3220 3221 3223 3224 3225 3227 3228 3230 3231 3232 3233 3235 3236 3237 3239 3240 3241 3242 3243 3244 3245 3246 3247
3144 3145 3143 3143 3144 3144 3144 3144 3145 3146 3147 3147 3148 3148 3149 3151 3152 3153 3154 3156 3157 3158 3159 3160 3161 3161 3161 3162 3162 3163 3163 3163 3163 3164 3166 3168 3170 3171 3173 3174 3175 3176 3178 3179 3181 3183 3186 3189 3190 3191 3194 3195 3196 3197 3199 3200 3202 3204 3207 3209 3210 3211 3214 3217 3219 3220 3221 3223 3224 3225 3227 3228 3229 3231 3232 3233 3235 3236 3237 3238 3239 3241 3242 3243 3244 3245
3144 3144 3144 3143 3143 3143 3144 3145 3145 3146 3147 3147 3147 3147 3149 3150 3152 3153 3154 3154 3156 3157 3158 3159 3160 3160 3160 3161 3161 3161 3162 3162 3162 3163 3165 3167 3169 3170 3172 3173 3174 3175 3176 3177 3179 3181 3183 3185 3187 3189 3192 3193 3194 3195 3196 3198 3200 3202 3204 3205 3206 3208 3211 3214 3216 3217 3218 3220 3221 3222 3223 3225 3227 3228 3229 3230 3232 3233 3235 3236 3237 3238 3239 3241 3241 3242
3143 3143 3144 3144 3144 3144 3144 3145 3145 3145 3145 3147 3147 3147 3148 3149 3150 3152 3153 3153 3154 3156 3157 3158 3158 3159 3159 3159 3160 3160 3161 3161 3162 3163 3165 3166 3168 3169 3170 3172 3173 3174 3175 3176 3178 3179 3181 3183 3184 3185 3188 3189 3189 3190 3192 3194 3196 3198 3199 3200 3203 3206 3208 3211 3212 3214 3215 3217 3218 3219 3221 3222 3223 3225 3226 3227 3228 3229 3231 3232 3234 3235 3236 3238 3239 3240
3142 3143 3144 3145 3144 3145 3145 3145 3144 3143 3144 3147 3148 3148 3148 3149 3150 3151 3152 3153 3154 3155 3156 3156 3157 3158 3158 3159 3159 3160 3160 3160 3161 3162 3164 3166 3167 3168 3170 3171 3173 3174 3174 3175 3177 3178 3179 3180 3181 3183 3185 3185 3185 3187 3189 3191 3192 3193 3195 3196 3199 3202 3204 3206 3208 3210 3211 3213 3215 3216 3218 3219 3220 3221 3223 3223 3224 3226 3227 3229 3230 3232 3233 3234 3236 3237
3142 3142 3144 3144 3144 3146 3146 3146 3145 3144 3145 3148 3149 3148 3148 3149 3150 3151 3152 3152 3153 3154 3155 3155 3156 3157 3157 3158 3158 3158 3159 3159 3160 3161 3163 3165 3166 3167 3169 3170 3171 3173 3174 3175 3175 3176 3177 3178 3180 3182 3184 3184 3183 3186 3188 3189 3189 3191 3194 3196 3198 3200 3201 3203 3205 3207 3208 3210 3212 3213 3215 3216 3217 3218 3219 3220 3221 3222 3224 3225 3227 3228 3230 3231 3232 3233
3142 3142 3143 3143 3144 3146 3146 3147 3147 3147 3148 3149 3148 3148 3149 3149 3150 3151 3152 3153 3153 3153 3154 3155 3155 3155 3156 3157 3157 3157 3158 3158 3159 3160 3162 3163 3165 3166 3167 3169 3170 3171 3172 3173 3173 3174 3175 3176 3178 3180 3181 3181 3182 3184 3185 3186 3187 3190 3192 3195 3197 3198 3199 3200 3202 3204 3206 3208 3209 3210 3211 3212 3214 3215 3216 3217 3218 3219 3220 3222 3224 3225 3227 3228 3229 3230
3141 3142 3143 3143 3143 3144 3144 3146 3148 3149 3149 3149 3149 3149 3149 3150 3151 3152 3153 3153 3152 3153 3153 3154 3154 3155 3156 3156 3156 3156 3156 3157 3158 3159 3161 3162 3163 3164 3165 3167 3168 3169 3170 3171 3172 3174 3175 3176 3177 3178 3179 3180 3181 3181 3182 3184 3186 3188 3189 3192 3194 3196 3197 3198 3199 3201 3204 3205 3207 3208 3208 3209 3210 3212 3213 3214 3216 3217 3218 3219 3221 3222 3223 3224 3225 3226
3140 3141 3142 3142 3143 3143 3143 3144 3146 3148 3148 3148 3149 3149 3150 3151 3151 3151 3152 3153 3153 3152 3153 3153 3153 3154 3155 3155 3155 3154 3155 3156 3157 3158 3159 3160 3161 3162 3164 3165 3167 3168 3169 3170 3172 3174 3175 3176 3177 3177 3178 3179 3180 3180 3181 3183 3185 3186 3187 3189 3191 3193 3195 3196 3197 3200 3202 3203 3204 3205 3206 3207 3208 3209 3211 3212 3213 3215 3216 3217 3218 3219 3220 3221 3222 3222
3139 3140 3141 3142 3142 3142 3142 3142 3143 3145 3147 3147 3148 3149 3150 3151 3151 3151 3152 3153 3153 3152 3153 3153 3153 3154 3154 3154 3154 3154 3156 3157 3157 3157 3158 3159 3160 3162 3163 3164 3166 3167 3168 3169 3171 3173 3174 3175 3176 3177 3177 3177 3178 3179 3181 3182 3184 3185 3186 3188 3190 3192 3194 3195 3196 3198 3200 3201 3203 3203 3204 3205 3206 3207 3209 3210 3211 3212 3213 3214 3216 3217 3217 3218 3219 3220
3140 3140 3141 3141 3141 3141 3142 3142 3142 3144 3146 3147 3148 3149 3150 3150 3151 3150 3150 3152 3153 3152 3152 3153 3153 3153 3154 3154 3154 3155 3157 3159 3158 3157 3157 3159 3160 3162 3164 3165 3166 3167 3167 3168 3169 3171 3172 3173 3174 3175 3176 3176 3177 3178 3179 3181 3182 3183 3185 3187 3189 3191 3193 3194 3195 3197 3198 3199 3200 3202 3203 3204 3205 3206 3207 3208 3209 3210 3211 3213 3214 3215 3215 3216 3217 3217
3140 3141 3141 3140 3140 3140 3141 3142 3143 3145 3146 3147 3148 3149 3149 3150 3150 3149 3149 3151 3153 3152 3152 3152 3153 3153 3154 3154 3155 3156 3157 3158 3157 3157 3158 3159 3160 3162 3164 3165 3166 3166 3167 3168 3169 3170 3171 3172 3173 3174 3175 3175 3176 3177 3178 3180 3181 3182 3183 3185 3187 3189 3191 3192 3193 3195 3196 3198 3199 3200 3201 3202 3203 3204 3205 3206 3207 3208 3210 3211 3212 3213 3213 3214 3215 3215
3141 3140 3140 3140 3140 3140 3141 3142 3143 3145 3146 3147 3148 3149 3149 3150 3150 3150 3150 3151 3152 3152 3152 3152 3153 3153 3154 3154 3155 3156 3156 3157 3157 3157 3158 3160 3161 3162 3163 3164 3165 3166 3167 3168 3168 3169 3170 3171 3172 3174 3174 3175 3176 3177 3177 3179 3180 3181 3182 3184 3185 3187 3188 3189 3191 3193 3194 3196 3198 3199 3199 3200 3202 3202 3203 3205 3206 3207 3208 3209 3210 3211 3211 3212 3212 3213
3141 3141 3141 3141 3141 3141 3140 3141 3143 3145 3146 3147 3147 3148 3148 3148 3149 3149 3150 3150 3151 3151 3151 3152 3153 3154 3154 3154 3155 3155 3155 3157 3158 3158 3159 3161 3161 3162 3164 3164 3165 3166 3167 3168 3169 3169 3170 3171 3172 3173 3174 3175 3176 3177 3178 3179 3180 3181 3182 3183 3184 3186 3187 3188 3190 3191 3193 3195 3197 3198 3198 3199 3200 3201 3202 3203 3204 3205 3206 3207 3208 3209 3209 3210 3210 3211
3141 3141 3142 3142 3141 3141 3141 3142 3144 3146 3146 3146 3147 3147 3147 3147 3148 3149 3149 3150 3151 3151 3151 3151 3152 3153 3154 3154 3154 3154 3154 3156 3158 3159 3161 3162 3162 3162 3163 3164 3165 3166 3167 3168 3169 3170 3171 3172 3172 3173 3174 3175 3176 3177 3178 3179 3180 3181 3182 3183 3184 3186 3187 3188 3189 3190 3192 3194 3196 3197 3198 3199 3199 3200 3201 3202 3203 3204 3205 3206 3207 3207 3208 3209 3209 3210
3142 3142 3142 3142 3142 3142 3143 3144 3145 3146 3146 3146 3146 3146 3146 3146 3147 3148 3148 3149 3150 3150 3151 3151 3151 3152 3153 3153 3152 3152 3153 3155 3157 3158 3160 3162 3163 3163 3164 3166 3167 3167 3168 3169 3170 3171 3172 3172 3173 3174 3175 3175 3177 3178 3178 3179 3180 3181 3182 3183 3184 3185 3186 3187 3189 3190 3191 3193 3195 3195 3196 3197 3198 3199 3200 3201 3201 3202 3203 3204 3205 3206 3207 3207 3208 3209
3142 3142 3142 3143 3143 3143 3144 3144 3145 3145 3145 3145 3145 3145 3146 3146 3146 3147 3147 3148 3149 3149 3150 3151 3151 3151 3152 3151 3151 3151 3152 3155 3156 3157 3159 3160 3161 3161 3163 3165 3166 3166 3167 3169 3171 3171 3172 3173 3173 3174 3175 3176 3177 3178 3178 3179 3180 3181 3181 3183 3183 3184 3185 3186 3188 3189 3191 3192 3193 3194 3195 3195 3196 3197 3198 3199 3199 3200 3201 3202 3203 3204 3205 3205 3206 3207
3141 3142 3142 3143 3144 3144 3144 3144 3144 3145 3145 3145 3145 3145 3145 3146 3146 3147 3147 3147 3148 3149 3149 3150 3150 3150 3150 3150 3150 3150 3152 3154 3157 3158 3158 3159 3160 3160 3160 3161 3163 3165 3166 3168 3170 3171 3172 3172 3173 3174 3175 3175 3176 3177 3178 3178 3179 3180 3181 3182 3183 3183 3184 3185 3186 3187 3189 3190 3191 3191 3192 3193 3194 3195 3196 3196 3197 3198 3198 3199 3200 3201 3202 3203 3204 3204
3142 3142 3142 3143 3144 3144 3144 3144 3144 3144 3144 3145 3145 3145 3145 3146 3146 3146 3147 3147 3147 3148 3148 3148 3149 3149 3149 3149 3148 3149 3151 3153 3155 3156 3157 3157 3158 3158 3158 3158 3160 3162 3164 3166 3168 3170 3170 3171 3171 3172 3173 3174 3174 3175 3176 3177 3177 3178 3179 3180 3181 3182 3183 3184 3185 3185 3186 3187 3188 3189 3190 3191 3191 3192 3193 3193 3194 3195 3195 3196 3197 3198 3199 3200 3201 3201
3142 3142 3142 3143 3144 3144 3143 3143 3143 3144 3143 3144 3144 3144 3145 3145 3145 3146 3146 3146 3147 3147 3147 3147 3147 3147 3148 3147 3147 3148 3149 3150 3152 3155 3156 3156 3156 3155 3155 3156 3158 3160 3162 3163 3165 3166 3167 3168 3169 3169 3170 3171 3172 3173 3174 3174 3175 3176 3177 3177 3178 3179 3180 3181 3182 3183 3184 3185 3186 3187 3187 3188 3189 3189 3190 3190 3191 3191 3192 3193 3193 3194 3195 3196 3197 3198
3141 3142 3142 3143 3143 3143 3142 3142 3143 3143 3143 3143 3143 3144 3144 3144 3145 3145 3145 3146 3146 3146 3146 3146 3146 3146 3146 3146 3146 3147 3148 3149 3150 3152 3153 3153 3154 3154 3155 3156 3158 3159 3160 3162 3163 3164 3165 3166 3167 3168 3169 3170 3170 3171 3172 3173 3173 3174 3174 3175 3176 3177 3177 3178 3179 3180 3181 3182 3183 3183 3184 3185 3186 3186 3187 3187 3188 3188 3189 3189 3190 3190 3191 3192 3193 3193
3140 3140 3140 3141 3141 3140 3141 3141 3142 3142 3142 3142 3142 3142 3143 3143 3143 3144 3144 3145 3145 3145 3145 3145 3145 3145 3144 3145 3145 3146 3147 3148 3148 3149 3150 3151 3153 3154 3156 3158 3159 3160 3161 3161 3161 3162 3163 3164 3165 3166 3167 3168 3169 3170 3170 3171 3172 3172 3173 3173 3174 3174 3175 3176 3177 3177 3178 3179 3179 3180 3181 3181 3182 3182 3183 3183 3184 3185 3186 3186 3186 3187 3187 3188 3189 3189